User: anonymous   Login
Location: ???? ?????
(30.0052°N, 31.2891°E)
Time: 08:47:04
(UTC+00:00)
Language:

CZ-2C R/B - Orbit

View from above orbital plane
View from above orbital plane
View from above satellite
View from above satellite

Ground track
Ground track

The orbit data is extracted from the following two-line orbital elements,

1 43173U 18011E   22230.82993724  .00017220  00000-0  39572-3 0  9993
2 43173  34.9883  92.0946 0119222  28.1520 332.5580 15.34553270254709
Epoch (UTC): 18 August 2022 19:55:06
Eccentricity: 0.0119222
inclination: 34.9883°
perigee height: 381 km
apogee height: 544 km
right ascension of ascending node: 92.0946°
argument of perigee: 28.1520°
revolutions per day: 15.34553270
mean anomaly at epoch: 332.5580°
orbit number at epoch: 25470

The dashed part of the orbit path shows where the satellite is in the earth's shadow,  

DLR